Location: Saratoga Springs
(43.0831°N, 73.7850°W)
Time: 21:40:53
(UTC-04:00)

Transit 2A Rocket - Pass Details

Date: 19 April 2024
Orbit: 584 x 909 km, 66.7° (Epoch: 24 May)

Event Time Altitude Azimuth Distance (km) Brightness Sun altitude
Rises 21:57:23 0° 324° (NW) 3,325 9.7 -22.0°
Reaches altitude 10° 21:59:48 10° 320° (NW) 2,435 8.7 -22.4°
Maximum altitude 22:05:18 54° 245° (WSW) 1,049 5.7 -23.1°
Enters shadow 22:07:28 36° 189° (S) 1,376 6.0 -23.4°
